Location: ????????
(55.1591°N, 39.1782°E)
Time: 20:07:51
(UTC+00:00)

EO 1 Delta rocket - Pass Details

Date: 14 April 2024
Orbit: 696 x 1790 km, 95.4° (Epoch: 17 May)

Event Time Altitude Azimuth Distance (km) Brightness Sun altitude
Rises 00:18:37 0° 12° (NNE) 3,283 8.3 -15.7°
Reaches altitude 10° 00:21:05 10° 17° (NNE) 2,270 7.4 -15.5°
Maximum altitude 00:25:50 57° 96° (E) 831 4.4 -15.0°
Drops below altitude 10° 00:30:22 10° 176° (S) 2,169 6.0 -14.5°
Enters shadow 00:30:45 - 177° (S) 2,326 6.1 -14.5°
